User: anonymous   Login
Location: Red Deer
(52.2681°N, 113.8112°W)
Time: 12:49:00
(UTC-06:00)
Language:

Oscar 11 - Orbit

View from above orbital plane
View from above orbital plane
View from above satellite
View from above satellite

Ground track
Ground track

The orbit data is extracted from the following two-line orbital elements,

1 14781U 84021B   22143.76745911  .00001445  00000-0  18103-3 0  9998
2 14781  97.6160 132.3288 0009646  50.7217 309.4852 14.83638555 36385
Epoch (UTC): 23 May 2022 18:25:08
Eccentricity: 0.0009646
inclination: 97.6160°
perigee height: 611 km
apogee height: 624 km
right ascension of ascending node: 132.3288°
argument of perigee: 50.7217°
revolutions per day: 14.83638555
mean anomaly at epoch: 309.4852°
orbit number at epoch: 3638

The dashed part of the orbit path shows where the satellite is in the earth's shadow,  

DLR